When you browse on this site, cookies collect data to enhance your experience and personalize the content and advertising you see.
Visit our Privacy Policy to learn more. By continuing to use the site, you agree to this use of cookies and data.
  • In Switzerland
  • List of Countries
  • For 7 days
  • Water Temperature
  • Weather Map
  • Weather Widgets
  • user-avatar
    Login

    Hourly Weather Kerns

    Today, 18 October, Friday

    Time Temperature Precipitation Wind Pressure Humidity
    00:00 +23°C° 0 mm 1 mps 761 mmHg 94%
    01:00 +22°C° 0 mm 1 mps 760 mmHg 95%
    02:00 +22°C° 0 mm 1 mps 760 mmHg 95%
    03:00 +22°C° 0 mm 1 mps 760 mmHg 96%
    04:00 +22°C° 0 mm 1 mps 760 mmHg 94%
    05:00 +23°C° 0 mm 1 mps 760 mmHg 90%
    06:00 +22°C° 0 mm 0 mps 761 mmHg 85%
    07:00 +23°C° 0 mm 0 mps 761 mmHg 81%
    08:00 +28°C° 0 mm 1 mps 761 mmHg 68%
    09:00 +31°C° 0 mm 1 mps 762 mmHg 55%
    10:00 +35°C° 0 mm 2 mps 762 mmHg 46%
    11:00 +35°C° 0 mm 2 mps 761 mmHg 46%
    12:00 +35°C° 0 mm 3 mps 760 mmHg 46%
    13:00 +36°C° 0 mm 3 mps 760 mmHg 45%
    14:00 +35°C° 0 mm 3 mps 759 mmHg 49%
    15:00 +33°C° 0 mm 3 mps 759 mmHg 53%
    16:00 +31°C° 0 mm 3 mps 758 mmHg 56%
    17:00 +29°C° 0 mm 2 mps 759 mmHg 67%
    18:00 +27°C° 0 mm 2 mps 759 mmHg 77%
    19:00 +24°C° 0 mm 1 mps 760 mmHg 87%
    20:00 +24°C° 0 mm 1 mps 760 mmHg 90%
    21:00 +23°C° 0 mm 1 mps 761 mmHg 93%
    22:00 +23°C° 0 mm 1 mps 761 mmHg 95%
    23:00 +22°C° 0 mm 1 mps 761 mmHg 96%

    Tomorrow, 19 October, Saturday

    Time Temperature Precipitation Wind Pressure Humidity
    00:00 +22°C° 0 mm 1 mps 760 mmHg 96%
    01:00 +22°C° 0 mm 1 mps 760 mmHg 97%
    02:00 +22°C° 0 mm 1 mps 760 mmHg 97%
    03:00 +22°C° 0 mm 1 mps 760 mmHg 97%
    04:00 +21°C° 0 mm 1 mps 760 mmHg 96%
    05:00 +22°C° 0 mm 1 mps 761 mmHg 89%
    06:00 +23°C° 0 mm 1 mps 761 mmHg 81%
    07:00 +24°C° 0 mm 1 mps 762 mmHg 73%
    08:00 +28°C° 0 mm 1 mps 762 mmHg 59%
    09:00 +32°C° 0 mm 2 mps 762 mmHg 46%
    10:00 +36°C° 0 mm 2 mps 762 mmHg 32%
    11:00 +37°C° 0 mm 2 mps 761 mmHg 34%
    12:00 +37°C° 0 mm 3 mps 760 mmHg 35%
    13:00 +38°C° 0 mm 3 mps 759 mmHg 36%
    14:00 +36°C° 0 mm 3 mps 759 mmHg 42%
    15:00 +35°C° 0 mm 3 mps 758 mmHg 47%
    16:00 +33°C° 0 mm 3 mps 758 mmHg 52%
    17:00 +30°C° 0 mm 3 mps 758 mmHg 62%
    18:00 +27°C° 0 mm 2 mps 759 mmHg 73%
    19:00 +25°C° 0 mm 2 mps 759 mmHg 83%
    20:00 +24°C° 0 mm 1 mps 760 mmHg 87%
    21:00 +23°C° 0 mm 1 mps 760 mmHg 90%
    22:00 +22°C° 0 mm 1 mps 761 mmHg 94%
    23:00 +22°C° 0 mm 1 mps 761 mmHg 95%

    Day after tomorrow, 20 October, Sunday

    Time Temperature Precipitation Wind Pressure Humidity
    00:00 +22°C° 0 mm 1 mps 761 mmHg 95%
    01:00 +21°C° 0 mm 1 mps 760 mmHg 96%
    02:00 +21°C° 0 mm 1 mps 760 mmHg 96%
    03:00 +21°C° 0 mm 1 mps 760 mmHg 96%
    04:00 +21°C° 0 mm 1 mps 760 mmHg 96%
    05:00 +22°C° 0 mm 1 mps 760 mmHg 88%
    06:00 +23°C° 0 mm 1 mps 761 mmHg 81%
    07:00 +24°C° 0 mm 1 mps 761 mmHg 74%
    08:00 +28°C° 0 mm 2 mps 761 mmHg 58%
    09:00 +31°C° 0 mm 2 mps 761 mmHg 42%
    10:00 +36°C° 0 mm 3 mps 761 mmHg 26%
    11:00 +37°C° 0 mm 3 mps 760 mmHg 25%
    12:00 +37°C° 0 mm 3 mps 760 mmHg 24%
    13:00 +38°C° 0 mm 4 mps 759 mmHg 24%
    14:00 +36°C° 0 mm 3 mps 758 mmHg 28%
    15:00 +35°C° 0 mm 3 mps 758 mmHg 33%
    16:00 +34°C° 0 mm 3 mps 758 mmHg 37%
    17:00 +30°C° 0 mm 2 mps 758 mmHg 53%
    18:00 +27°C° 0 mm 2 mps 758 mmHg 68%
    19:00 +24°C° 0 mm 1 mps 759 mmHg 84%
    20:00 +23°C° 0 mm 1 mps 759 mmHg 87%
    21:00 +22°C° 0 mm 1 mps 760 mmHg 91%
    22:00 +22°C° 0 mm 1 mps 760 mmHg 94%
    23:00 +20°C° 0 mm 2 mps 760 mmHg 95%

    21 October, Monday

    Time Temperature Precipitation Wind Pressure Humidity
    00:00 +20°C° 0 mm 2 mps 760 mmHg 95%
    01:00 +20°C° 0 mm 2 mps 760 mmHg 96%
    02:00 +20°C° 0 mm 2 mps 760 mmHg 95%
    03:00 +20°C° 0 mm 2 mps 760 mmHg 95%
    04:00 +20°C° 0 mm 2 mps 760 mmHg 95%
    05:00 +21°C° 0 mm 2 mps 760 mmHg 90%
    06:00 +23°C° 0 mm 2 mps 760 mmHg 85%
    07:00 +24°C° 0 mm 2 mps 761 mmHg 80%
    08:00 +26°C° 0 mm 3 mps 761 mmHg 73%
    09:00 +28°C° 0 mm 4 mps 761 mmHg 65%
    10:00 +29°C° 0 mm 4 mps 761 mmHg 58%
    11:00 +30°C° 0 mm 5 mps 760 mmHg 55%
    12:00 +32°C° 0 mm 5 mps 760 mmHg 51%
    13:00 +33°C° 0 mm 6 mps 759 mmHg 47%
    14:00 +33°C° 0 mm 6 mps 759 mmHg 48%
    15:00 +32°C° 0 mm 6 mps 759 mmHg 48%
    16:00 +32°C° 0 mm 6 mps 759 mmHg 48%
    17:00 +29°C° 0 mm 6 mps 760 mmHg 59%
    18:00 +27°C° 0 mm 5 mps 760 mmHg 71%
    19:00 +25°C° 0 mm 5 mps 761 mmHg 82%
    20:00 +23°C° 0.1 mm 5 mps 761 mmHg 86%
    21:00 +22°C° 0.1 mm 5 mps 761 mmHg 89%
    22:00 +22°C° 0.1 mm 5 mps 761 mmHg 93%
    23:00 +22°C° 0.2 mm 5 mps 761 mmHg 92%

    22 October, Tuesday

    Time Temperature Precipitation Wind Pressure Humidity
    00:00 +22°C° 0.2 mm 5 mps 761 mmHg 92%
    01:00 +22°C° 0.2 mm 6 mps 760 mmHg 92%
    02:00 +22°C° 0.1 mm 6 mps 760 mmHg 91%
    03:00 +22°C° 0.1 mm 6 mps 760 mmHg 90%
    04:00 +22°C° 0.1 mm 6 mps 760 mmHg 89%
    05:00 +22°C° 0.1 mm 6 mps 761 mmHg 85%
    06:00 +23°C° 0.1 mm 6 mps 761 mmHg 82%
    07:00 +23°C° 0.1 mm 7 mps 761 mmHg 79%
    08:00 +26°C° 0 mm 7 mps 762 mmHg 69%
    09:00 +28°C° 0 mm 7 mps 762 mmHg 58%
    10:00 +30°C° 0 mm 7 mps 762 mmHg 48%
    11:00 +30°C° 0 mm 7 mps 761 mmHg 46%
    12:00 +30°C° 0 mm 7 mps 761 mmHg 44%
    13:00 +32°C° 0 mm 7 mps 760 mmHg 43%
    14:00 +30°C° 0 mm 7 mps 760 mmHg 45%
    15:00 +30°C° 0 mm 7 mps 760 mmHg 47%
    16:00 +29°C° 0 mm 7 mps 760 mmHg 49%
    17:00 +27°C° 0.1 mm 6 mps 760 mmHg 58%
    18:00 +24°C° 0.1 mm 6 mps 761 mmHg 67%
    19:00 +22°C° 0.1 mm 6 mps 761 mmHg 77%
    20:00 +22°C° 0.1 mm 6 mps 762 mmHg 80%
    21:00 +21°C° 0.1 mm 6 mps 762 mmHg 84%
    22:00 +20°C° 0.1 mm 5 mps 762 mmHg 88%
    23:00 +20°C° 0 mm 5 mps 762 mmHg 88%

    23 October, Wednesday

    Time Temperature Precipitation Wind Pressure Humidity
    00:00 +20°C° 0 mm 5 mps 761 mmHg 88%
    01:00 +20°C° 0 mm 5 mps 761 mmHg 88%
    02:00 +20°C° 0 mm 5 mps 761 mmHg 88%
    03:00 +20°C° 0 mm 5 mps 760 mmHg 88%
    04:00 +20°C° 0 mm 5 mps 760 mmHg 89%
    05:00 +20°C° 0 mm 5 mps 760 mmHg 85%
    06:00 +21°C° 0 mm 5 mps 761 mmHg 81%
    07:00 +22°C° 0 mm 6 mps 761 mmHg 77%
    08:00 +24°C° 0.1 mm 6 mps 761 mmHg 70%
    09:00 +27°C° 0.1 mm 6 mps 761 mmHg 62%
    10:00 +29°C° 0.1 mm 6 mps 761 mmHg 54%
    11:00 +29°C° 0.1 mm 6 mps 761 mmHg 52%
    12:00 +30°C° 0.1 mm 7 mps 760 mmHg 50%
    13:00 +30°C° 0.1 mm 7 mps 760 mmHg 48%
    14:00 +30°C° 0 mm 6 mps 759 mmHg 49%
    15:00 +29°C° 0 mm 6 mps 759 mmHg 51%
    16:00 +29°C° 0 mm 6 mps 759 mmHg 52%
    17:00 +27°C° 0.1 mm 6 mps 759 mmHg 63%
    18:00 +25°C° 0.1 mm 5 mps 760 mmHg 73%
    19:00 +22°C° 0.1 mm 5 mps 760 mmHg 83%
    20:00 +21°C° 0.1 mm 5 mps 761 mmHg 87%
    21:00 +21°C° 0.1 mm 5 mps 761 mmHg 91%
    22:00 +21°C° 0.1 mm 5 mps 761 mmHg 94%
    23:00 +20°C° 0.1 mm 5 mps 761 mmHg 94%
    Show more